When you browse on this site, cookies collect data to enhance your experience and personalize the content and advertising you see.
Visit our Privacy Policy to learn more. By continuing to use the site, you agree to this use of cookies and data.
  • In Österreich
  • Länderverzeichnis
  • Für 7 Tage
  • Wassertemperatur
  • Wetterkarte
  • News
  • Widgets
  • user-avatar
    Anmelden

    Stündliche Wetter Saurimo

    Heute, 1 Juni, Montag

    Zeit Temperatur Niederschläge Wind Luftdruck Luftfeuchtigkeit
    00:00 +19°C° 0 mm 2 m/S 672 mmHg 57%
    01:00 +19°C° 0 mm 2 m/S 672 mmHg 60%
    02:00 +20°C° 0 mm 2 m/S 672 mmHg 58%
    03:00 +21°C° 0 mm 2 m/S 672 mmHg 57%
    04:00 +21°C° 0 mm 2 m/S 672 mmHg 55%
    05:00 +21°C° 0 mm 3 m/S 672 mmHg 56%
    06:00 +22°C° 0 mm 3 m/S 673 mmHg 58%
    07:00 +22°C° 0 mm 3 m/S 674 mmHg 57%
    08:00 +24°C° 0 mm 3 m/S 674 mmHg 54%
    09:00 +26°C° 0 mm 3 m/S 674 mmHg 51%
    10:00 +27°C° 0 mm 3 m/S 674 mmHg 47%
    11:00 +28°C° 0 mm 3 m/S 674 mmHg 44%
    12:00 +29°C° 0 mm 3 m/S 673 mmHg 41%
    13:00 +30°C° 0 mm 3 m/S 673 mmHg 37%
    14:00 +29°C° 0 mm 2 m/S 673 mmHg 39%
    15:00 +29°C° 0 mm 2 m/S 672 mmHg 41%
    16:00 +28°C° 0 mm 1 m/S 671 mmHg 42%
    17:00 +26°C° 0 mm 1 m/S 672 mmHg 46%
    18:00 +25°C° 0 mm 1 m/S 672 mmHg 50%
    19:00 +23°C° 0 mm 1 m/S 672 mmHg 53%
    20:00 +23°C° 0 mm 1 m/S 672 mmHg 53%
    21:00 +23°C° 0 mm 1 m/S 672 mmHg 53%
    22:00 +22°C° 0 mm 1 m/S 672 mmHg 53%
    23:00 +23°C° 0 mm 1 m/S 672 mmHg 52%

    Morgen, 2 Juni, Dienstag

    Zeit Temperatur Niederschläge Wind Luftdruck Luftfeuchtigkeit
    00:00 +23°C° 0 mm 1 m/S 673 mmHg 51%
    01:00 +23°C° 0 mm 1 m/S 673 mmHg 50%
    02:00 +22°C° 0 mm 1 m/S 672 mmHg 53%
    03:00 +21°C° 0 mm 1 m/S 672 mmHg 55%
    04:00 +20°C° 0 mm 2 m/S 671 mmHg 57%
    05:00 +20°C° 0 mm 2 m/S 672 mmHg 57%
    06:00 +20°C° 0 mm 2 m/S 672 mmHg 57%
    07:00 +20°C° 0 mm 3 m/S 673 mmHg 56%
    08:00 +24°C° 0 mm 3 m/S 673 mmHg 49%
    09:00 +27°C° 0 mm 3 m/S 674 mmHg 41%
    10:00 +30°C° 0 mm 3 m/S 674 mmHg 34%
    11:00 +30°C° 0 mm 3 m/S 674 mmHg 32%
    12:00 +31°C° 0 mm 3 m/S 673 mmHg 30%
    13:00 +33°C° 0 mm 3 m/S 673 mmHg 28%
    14:00 +32°C° 0 mm 2 m/S 672 mmHg 28%
    15:00 +31°C° 0 mm 2 m/S 672 mmHg 29%
    16:00 +31°C° 0 mm 2 m/S 671 mmHg 29%
    17:00 +29°C° 0 mm 2 m/S 671 mmHg 34%
    18:00 +27°C° 0 mm 2 m/S 671 mmHg 38%
    19:00 +25°C° 0 mm 1 m/S 671 mmHg 43%
    20:00 +24°C° 0 mm 1 m/S 672 mmHg 43%
    21:00 +24°C° 0 mm 1 m/S 672 mmHg 43%
    22:00 +24°C° 0 mm 1 m/S 672 mmHg 44%
    23:00 +23°C° 0 mm 2 m/S 671 mmHg 46%

    übermorgen, 3 Juni, Mittwoch

    Zeit Temperatur Niederschläge Wind Luftdruck Luftfeuchtigkeit
    00:00 +20°C° 0 mm 2 m/S 671 mmHg 48%
    01:00 +19°C° 0 mm 2 m/S 671 mmHg 51%
    02:00 +19°C° 0 mm 2 m/S 670 mmHg 51%
    03:00 +18°C° 0 mm 2 m/S 670 mmHg 51%
    04:00 +17°C° 0 mm 2 m/S 670 mmHg 51%
    05:00 +18°C° 0 mm 2 m/S 670 mmHg 50%
    06:00 +18°C° 0 mm 3 m/S 671 mmHg 48%
    07:00 +19°C° 0 mm 3 m/S 671 mmHg 47%
    08:00 +22°C° 0 mm 3 m/S 672 mmHg 42%
    09:00 +26°C° 0 mm 3 m/S 673 mmHg 38%
    10:00 +29°C° 0 mm 3 m/S 673 mmHg 33%
    11:00 +30°C° 0 mm 3 m/S 673 mmHg 30%
    12:00 +32°C° 0 mm 2 m/S 673 mmHg 28%
    13:00 +34°C° 0 mm 2 m/S 672 mmHg 25%
    14:00 +32°C° 0 mm 1 m/S 672 mmHg 27%
    15:00 +31°C° 0 mm 1 m/S 671 mmHg 30%
    16:00 +30°C° 0 mm 1 m/S 670 mmHg 32%
    17:00 +28°C° 0 mm 1 m/S 671 mmHg 35%
    18:00 +26°C° 0 mm 1 m/S 671 mmHg 39%
    19:00 +24°C° 0 mm 1 m/S 671 mmHg 42%
    20:00 +23°C° 0 mm 1 m/S 671 mmHg 45%
    21:00 +22°C° 0 mm 1 m/S 671 mmHg 48%
    22:00 +21°C° 0 mm 1 m/S 671 mmHg 50%
    23:00 +21°C° 0 mm 1 m/S 670 mmHg 51%

    4 Juni, Donnerstag

    Zeit Temperatur Niederschläge Wind Luftdruck Luftfeuchtigkeit
    00:00 +20°C° 0 mm 1 m/S 670 mmHg 53%
    01:00 +20°C° 0 mm 1 m/S 670 mmHg 54%
    02:00 +19°C° 0 mm 1 m/S 670 mmHg 54%
    03:00 +18°C° 0 mm 2 m/S 670 mmHg 54%
    04:00 +18°C° 0 mm 2 m/S 670 mmHg 54%
    05:00 +18°C° 0 mm 2 m/S 671 mmHg 52%
    06:00 +18°C° 0 mm 2 m/S 671 mmHg 51%
    07:00 +19°C° 0 mm 2 m/S 672 mmHg 49%
    08:00 +22°C° 0 mm 3 m/S 673 mmHg 43%
    09:00 +26°C° 0 mm 3 m/S 673 mmHg 37%
    10:00 +29°C° 0 mm 3 m/S 674 mmHg 31%
    11:00 +31°C° 0 mm 2 m/S 673 mmHg 29%
    12:00 +32°C° 0 mm 2 m/S 673 mmHg 27%
    13:00 +35°C° 0 mm 2 m/S 673 mmHg 25%
    14:00 +33°C° 0 mm 1 m/S 672 mmHg 26%
    15:00 +32°C° 0 mm 1 m/S 671 mmHg 28%
    16:00 +32°C° 0 mm 1 m/S 671 mmHg 29%
    17:00 +29°C° 0 mm 1 m/S 671 mmHg 34%
    18:00 +27°C° 0 mm 1 m/S 671 mmHg 38%
    19:00 +24°C° 0 mm 1 m/S 671 mmHg 43%
    20:00 +23°C° 0 mm 1 m/S 671 mmHg 44%
    21:00 +23°C° 0 mm 1 m/S 671 mmHg 46%
    22:00 +22°C° 0 mm 1 m/S 671 mmHg 47%
    23:00 +21°C° 0 mm 1 m/S 671 mmHg 48%

    5 Juni, Freitag

    Zeit Temperatur Niederschläge Wind Luftdruck Luftfeuchtigkeit
    00:00 +21°C° 0 mm 1 m/S 671 mmHg 50%
    01:00 +20°C° 0 mm 1 m/S 671 mmHg 51%
    02:00 +20°C° 0 mm 1 m/S 671 mmHg 51%
    03:00 +18°C° 0 mm 2 m/S 671 mmHg 52%
    04:00 +18°C° 0 mm 2 m/S 671 mmHg 52%
    05:00 +19°C° 0 mm 2 m/S 671 mmHg 52%
    06:00 +19°C° 0 mm 2 m/S 672 mmHg 51%
    07:00 +19°C° 0 mm 2 m/S 673 mmHg 51%
    08:00 +24°C° 0 mm 3 m/S 673 mmHg 43%
    09:00 +27°C° 0 mm 3 m/S 674 mmHg 36%
    10:00 +30°C° 0 mm 4 m/S 674 mmHg 29%
    11:00 +32°C° 0 mm 4 m/S 674 mmHg 27%
    12:00 +33°C° 0 mm 3 m/S 673 mmHg 26%
    13:00 +34°C° 0 mm 3 m/S 673 mmHg 24%
    14:00 +34°C° 0 mm 3 m/S 672 mmHg 25%
    15:00 +33°C° 0 mm 3 m/S 672 mmHg 26%
    16:00 +32°C° 0 mm 2 m/S 672 mmHg 26%
    17:00 +29°C° 0 mm 2 m/S 672 mmHg 31%
    18:00 +27°C° 0 mm 2 m/S 672 mmHg 35%
    19:00 +24°C° 0 mm 1 m/S 671 mmHg 40%
    20:00 +23°C° 0 mm 1 m/S 672 mmHg 41%
    21:00 +22°C° 0 mm 1 m/S 672 mmHg 43%
    22:00 +21°C° 0 mm 1 m/S 672 mmHg 44%
    23:00 +19°C° 0 mm 2 m/S 672 mmHg 44%

    6 Juni, Samstag

    Zeit Temperatur Niederschläge Wind Luftdruck Luftfeuchtigkeit
    00:00 +19°C° 0 mm 2 m/S 671 mmHg 44%
    01:00 +18°C° 0 mm 2 m/S 671 mmHg 44%
    02:00 +18°C° 0 mm 2 m/S 671 mmHg 44%
    03:00 +18°C° 0 mm 2 m/S 671 mmHg 45%
    04:00 +17°C° 0 mm 2 m/S 671 mmHg 45%
    05:00 +18°C° 0 mm 2 m/S 671 mmHg 44%
    06:00 +18°C° 0 mm 2 m/S 672 mmHg 44%
    07:00 +18°C° 0 mm 3 m/S 672 mmHg 44%
    08:00 +21°C° 0 mm 3 m/S 673 mmHg 38%
    09:00 +26°C° 0 mm 3 m/S 674 mmHg 31%
    10:00 +29°C° 0 mm 4 m/S 674 mmHg 25%
    11:00 +30°C° 0 mm 3 m/S 674 mmHg 23%
    12:00 +31°C° 0 mm 3 m/S 673 mmHg 21%
    13:00 +34°C° 0 mm 3 m/S 673 mmHg 18%
    14:00 +33°C° 0 mm 3 m/S 672 mmHg 19%
    15:00 +31°C° 0 mm 2 m/S 672 mmHg 21%
    16:00 +31°C° 0 mm 2 m/S 671 mmHg 22%
    17:00 +28°C° 0 mm 2 m/S 671 mmHg 26%
    18:00 +25°C° 0 mm 2 m/S 671 mmHg 31%
    19:00 +23°C° 0 mm 2 m/S 671 mmHg 35%
    20:00 +21°C° 0 mm 2 m/S 671 mmHg 37%
    21:00 +20°C° 0 mm 2 m/S 671 mmHg 38%
    22:00 +19°C° 0 mm 2 m/S 671 mmHg 39%
    23:00 +19°C° 0 mm 2 m/S 671 mmHg 42%
    Mehr zeigen